CAPE
0 0 0 0 0 0 0 0 0 0 0 0 0 0 0 0 0 0 0 0 0 0 0 0 0 0 0 0 0 7 15 7 5 26 11 7 6 84 234 119 137 245 19 16 82
0 0 0 0 0 0 0 0 0 0 0 0 0 0 0 0 0 0 0 0 0 0 0 0 0 0 0 0 0 6 8 11 24 24 18 14 1 39 157 136 158 90 54 41 121
0 0 0 0 0 0 0 0 0 0 0 0 0 0 0 0 0 0 0 0 0 0 0 0 0 0 0 0 0 0 14 9 38 12 13 9 18 75 151 76 43 41 45 82 93
0 0 0 0 0 0 0 0 0 0 0 0 0 0 0 0 0 0 0 0 0 0 0 0 0 0 0 0 0 0 0 0 17 35 15 4 49 58 146 269 157 95 81 56 79
0 0 0 0 0 0 0 0 0 0 0 0 0 0 0 0 0 0 0 0 0 0 0 0 0 0 0 0 0 0 0 0 0 12 42 103 20 4 170 301 327 109 91 46 35
2 0 0 0 0 0 0 0 0 0 0 0 0 0 0 0 0 0 0 0 0 0 0 0 0 0 0 0 0 0 0 0 0 26 89 76 120 71 155 119 175 148 66 37 12
2 1 0 0 0 0 0 0 0 0 0 0 0 0 0 0 0 0 0 0 0 0 0 0 0 0 0 0 0 0 0 0 0 40 33 270 78 84 76 106 316 208 89 71 21
3 1 0 0 0 0 0 0 0 0 0 0 0 0 0 0 0 0 0 0 0 0 0 0 0 0 0 0 0 0 0 0 0 255 288 289 11 63 142 137 204 217 137 149 93
0 0 0 0 0 0 0 0 0 0 0 0 0 0 0 0 0 0 0 0 0 0 0 0 0 0 0 0 0 0 0 0 0 280 278 211 38 70 242 308 164 180 166 132 100
0 0 0 0 0 0 0 0 0 0 0 0 0 0 0 0 0 0 0 0 0 0 0 0 0 0 0 0 0 0 0 0 0 31 270 60 57 81 175 506 245 149 70 84 128
0 0 0 0 0 0 0 0 0 0 0 0 0 0 0 0 0 0 0 0 0 0 0 0 0 0 0 0 0 0 0 0 0 0 0 0 0 159 52 502 332 204 39 71 97
0 0 0 0 0 0 0 0 0 0 0 0 0 0 0 0 0 0 0 0 0 0 0 0 0 0 0 0 0 0 0 0 0 0 0 0 0 130 54 443 303 249 107 81 69
0 0 0 0 0 0 0 0 0 0 0 0 0 0 0 0 0 0 0 0 0 0 0 0 0 0 0 0 0 0 0 0 0 0 63 23 2 167 41 217 519 182 181 156 106
0 0 0 0 0 0 0 0 0 0 0 0 0 0 0 0 0 0 0 0 0 0 0 0 0 0 0 0 0 0 0 0 0 0 0 19 0 12 131 32 200 489 134 262 185
0 0 0 0 0 0 0 0 0 0 0 0 0 0 0 0 0 0 0 0 0 0 0 0 0 0 0 0 0 0 0 0 0 0 0 0 0 0 178 217 188 231 246 155 297
0 0 0 0 0 0 0 0 0 0 0 0 0 0 0 0 0 0 0 0 0 0 0 0 0 0 0 0 0 0 0 0 0 0 0 0 0 0 0 0 46 175 140 245 233
0 0 0 0 0 0 0 0 0 0 0 0 0 0 0 0 0 0 0 0 0 0 0 0 0 0 0 0 0 0 0 0 0 0 0 0 0 0 0 0 18 49 70 126 297
0 0 0 0 0 0 0 0 0 0 0 0 0 0 0 0 0 0 0 0 0 0 0 0 0 0 0 0 0 0 0 0 0 0 0 0 0 0 0 0 0 0 18 31 122
0 0 0 0 0 0 0 0 0 0 0 0 0 0 0 0 0 0 0 0 0 0 0 0 0 0 0 0 0 0 0 0 0 0 0 0 0 0 0 0 0 0 0 0 11
0 0 0 0 0 0 0 0 0 0 0 0 0 0 0 0 0 0 0 0 0 0 0 0 0 0 0 0 0 0 0 0 0 0 0 0 0 0 2 7 0 0 8 0 0
0 0 0 0 0 0 0 0 0 0 0 0 0 0 0 0 0 0 0 0 0 0 0 0 0 0 0 0 0 0 0 0 0 0 0 0 0 0 1 1 0 2 7 8 21
0 0 0 0 0 0 0 0 0 0 0 0 0 0 0 0 0 0 0 0 0 0 0 0 0 0 0 0 0 0 0 0 0 0 0 0 0 0 0 0 9 0 0 0 1
0 0 0 0 0 0 0 0 0 0 0 0 0 0 0 0 0 0 0 0 0 0 0 0 0 0 0 0 0 0 0 0 0 0 0 0 0 0 0 0 0 0 0 0 0
0 0 0 0 0 0 0 0 0 0 0 0 0 0 0 0 0 0 0 0 0 0 0 0 0 0 0 0 0 0 0 0 0 0 0 0 0 1 0 0 0 0 0 0 0
0 0 0 0 0 0 0 0 0 0 0 0 0 0 0 0 0 0 0 0 0 0 0 0 0 0 0 0 0 0 0 0 0 0 0 0 0 0 1 0 1 1 0 0 0
0 0 0 0 0 0 0 0 0 0 0 0 0 0 0 0 0 0 0 0 0 0 0 0 0 0 0 0 0 0 0 0 0 0 0 0 0 0 0 0 0 0 1 0 0
0 0 0 0 0 0 0 0 0 0 0 0 0 0 0 0 0 0 0 0 0 0 0 0 0 0 0 0 0 0 0 0 0 0 0 0 0 0 0 0 0 0 0 0 0
CIN
-0 -0 -0 -0 -0 -0 -0 -0 -0 -0 -0 -0 -0 -0 -0 -0 -0 -0 -0 -0 -0 -0 -0 -0 -0 -0 -0 -0 -0 -66 -56 -87 -53 -27 -5 -9 -5 -22 -47 -78 -67 -73 -94 -195 -146
-0 -0 -0 -0 -0 -0 -0 -0 -0 -0 -0 -0 -0 -0 -0 -0 -0 -0 -0 -0 -0 -0 -0 -0 -0 -0 -0 -0 -0 -75 -87 -75 -46 -66 -85 -100 -10 -40 -12 -18 -48 -129 -199 -157 -85
-0 -0 -0 -0 -0 -0 -0 -0 -0 -0 -0 -0 -0 -0 -0 -0 -0 -0 -0 -0 -0 -0 -0 -0 -0 -0 -0 -0 -0 -0 -98 -87 -37 -99 -125 -107 -82 -41 -4 -23 -67 -124 -210 -161 -88
-0 -0 -0 -0 -0 -0 -0 -0 -0 -0 -0 -0 -0 -0 -0 -0 -0 -0 -0 -0 -0 -0 -0 -0 -0 -0 -0 -0 -0 -0 -0 -0 -38 -66 -112 -96 -86 -46 -16 -24 -59 -98 -157 -190 -136
-0 -0 -0 -0 -0 -0 -0 -0 -0 -0 -0 -0 -0 -0 -0 -0 -0 -0 -0 -0 -0 -0 -0 -0 -0 -0 -0 -0 -0 -0 -0 -0 -0 -73 -82 -88 -80 -101 -48 -53 -37 -56 -79 -126 -111
-0 -0 -0 -0 -0 -0 -0 -0 -0 -0 -0 -0 -0 -0 -0 -0 -0 -0 -0 -0 -0 -0 -0 -0 -0 -0 -0 -0 -0 -0 -0 -0 -0 -111 -62 -77 -109 -76 -64 -87 -91 -77 -97 -96 -107
-0 -0 -0 -0 -0 -0 -0 -0 -0 -0 -0 -0 -0 -0 -0 -0 -0 -0 -0 -0 -0 -0 -0 -0 -0 -0 -0 -0 -0 -0 -0 -0 -0 -124 -109 -72 -66 -95 -142 -132 -91 -88 -82 -56 -48
-0 -0 -0 -0 -0 -0 -0 -0 -0 -0 -0 -0 -0 -0 -0 -0 -0 -0 -0 -0 -0 -0 -0 -0 -0 -0 -0 -0 -0 -0 -0 -0 -0 -103 -74 -46 -34 -109 -175 -153 -143 -100 -95 -66 -58
-0 -0 -0 -0 -0 -0 -0 -0 -0 -0 -0 -0 -0 -0 -0 -0 -0 -0 -0 -0 -0 -0 -0 -0 -0 -0 -0 -0 -0 -0 -0 -0 -0 -88 -66 -76 -51 -83 -177 -163 -145 -119 -112 -94 -68
-0 -0 -0 -0 -0 -0 -0 -0 -0 -0 -0 -0 -0 -0 -0 -0 -0 -0 -0 -0 -0 -0 -0 -0 -0 -0 -0 -0 -0 -0 -0 -0 -0 -67 -38 -62 -59 -75 -201 -118 -138 -147 -136 -131 -160
-0 -0 -0 -0 -0 -0 -0 -0 -0 -0 -0 -0 -0 -0 -0 -0 -0 -0 -0 -0 -0 -0 -0 -0 -0 -0 -0 -0 -0 -0 -0 -0 -0 -0 -0 -0 -0 -60 -212 -121 -126 -119 -142 -122 -124
-0 -0 -0 -0 -0 -0 -0 -0 -0 -0 -0 -0 -0 -0 -0 -0 -0 -0 -0 -0 -0 -0 -0 -0 -0 -0 -0 -0 -0 -0 -0 -0 -0 -0 -0 -0 -0 -95 -186 -149 -170 -117 -142 -135 -101
-0 -0 -0 -0 -0 -0 -0 -0 -0 -0 -0 -0 -0 -0 -0 -0 -0 -0 -0 -0 -0 -0 -0 -0 -0 -0 -0 -0 -0 -0 -0 -0 -0 -0 -98 -99 -54 -120 -170 -142 -84 -141 -100 -111 -111
-0 -0 -0 -0 -0 -0 -0 -0 -0 -0 -0 -0 -0 -0 -0 -0 -0 -0 -0 -0 -0 -0 -0 -0 -0 -0 -0 -0 -0 -0 -0 -0 -0 -0 -0 -49 -0 -21 -106 -156 -163 -102 -191 -127 -105
-0 -0 -0 -0 -0 -0 -0 -0 -0 -0 -0 -0 -0 -0 -0 -0 -0 -0 -0 -0 -0 -0 -0 -0 -0 -0 -0 -0 -0 -0 -0 -0 -0 -0 -0 -0 -0 -0 -75 -101 -157 -212 -183 -176 -98
-0 -0 -0 -0 -0 -0 -0 -0 -0 -0 -0 -0 -0 -0 -0 -0 -0 -0 -0 -0 -0 -0 -0 -0 -0 -0 -0 -0 -0 -0 -0 -0 -0 -0 -0 -0 -0 -0 -0 -0 -120 -214 -229 -185 -159
-0 -0 -0 -0 -0 -0 -0 -0 -0 -0 -0 -0 -0 -0 -0 -0 -0 -0 -0 -0 -0 -0 -0 -0 -0 -0 -0 -0 -0 -0 -0 -0 -0 -0 -0 -0 -0 -0 -0 -0 -106 -148 -193 -235 -186
-0 -0 -0 -0 -0 -0 -0 -0 -0 -0 -0 -0 -0 -0 -0 -0 -0 -0 -0 -0 -0 -0 -0 -0 -0 -0 -0 -0 -0 -0 -0 -0 -0 -0 -0 -0 -0 -0 -0 -0 -0 -0 -249 -193 -214
-0 -0 -0 -0 -0 -0 -0 -0 -0 -0 -0 -0 -0 -0 -0 -0 -0 -0 -0 -0 -0 -0 -0 -0 -0 -0 -0 -0 -0 -0 -0 -0 -0 -0 -0 -0 -0 -0 -0 -0 -0 -0 -0 -0 -294
-0 -0 -0 -0 -0 -0 -0 -0 -0 -0 -0 -0 -0 -0 -0 -0 -0 -0 -0 -0 -0 -0 -0 -0 -0 -0 -0 -0 -0 -0 -0 -0 -0 -0 -0 -0 -0 -0 -52 -166 -0 -0 -390 -0 -0
-0 -0 -0 -0 -0 -0 -0 -0 -0 -0 -0 -0 -0 -0 -0 -0 -0 -0 -0 -0 -0 -0 -0 -0 -0 -0 -0 -0 -0 -0 -0 -0 -0 -0 -0 -0 -0 -0 -0 -0 -0 -124 -266 -367 -405
-0 -0 -0 -0 -0 -0 -0 -0 -0 -0 -0 -0 -0 -0 -0 -0 -0 -0 -0 -0 -0 -0 -0 -0 -0 -0 -0 -0 -0 -0 -0 -0 -0 -0 -0 -0 -0 -0 -0 -0 -214 -0 -0 -18 -22
-0 -0 -0 -0 -0 -0 -0 -0 -0 -0 -0 -0 -0 -0 -0 -0 -0 -0 -0 -0 -0 -0 -0 -0 -0 -0 -0 -0 -0 -0 -0 -0 -0 -0 -0 -0 -0 -0 -0 -0 -0 -0 -0 -0 -0
-0 -0 -0 -0 -0 -0 -0 -0 -0 -0 -0 -0 -0 -0 -0 -0 -0 -0 -0 -0 -0 -0 -0 -0 -0 -0 -0 -0 -0 -0 -0 -0 -0 -0 -0 -0 -0 -1 -0 -0 -0 -0 -0 -0 -0
-0 -0 -0 -0 -0 -0 -0 -0 -0 -0 -0 -0 -0 -0 -0 -0 -0 -0 -0 -0 -0 -0 -0 -0 -0 -0 -0 -0 -0 -0 -0 -0 -0 -0 -0 -0 -1 -0 -0 -0 -0 -0 -0 -0 -0
-0 -0 -0 -0 -0 -0 -0 -0 -0 -0 -0 -0 -0 -0 -0 -0 -0 -0 -0 -0 -0 -0 -0 -0 -0 -0 -0 -0 -0 -0 -0 -0 -0 -0 -0 -0 -0 -0 -0 -0 -0 -0 -0 -0 -0
-0 -0 -0 -0 -0 -0 -0 -0 -0 -0 -0 -0 -0 -0 -0 -0 -0 -0 -0 -0 -0 -0 -0 -0 -0 -0 -0 -0 -0 -0 -0 -0 -0 -0 -0 -0 -0 -0 -0 -0 -0 -0 -0 -0 -0
Wind_Speed
32 32 32 32 31 30 30 29 28 27 27 26 25 24 23 24 24 20 25 18 9 8 1 2 8 12 8 13 14 15 16 18 20 19 18 18 13 14 16 29 17 16 22 27 32
33 33 33 32 32 31 30 29 28 28 27 27 26 25 24 23 22 26 23 12 8 1 2 4 1 0 8 11 11 15 15 15 18 20 21 13 5 11 13 19 13 8 20 25 29
34 34 34 33 32 32 31 30 29 28 28 26 25 24 22 20 20 17 15 5 4 2 6 3 1 6 13 12 12 14 15 12 16 18 18 16 19 10 15 22 16 21 25 26 29
35 35 35 34 33 32 31 30 29 28 27 25 24 21 19 17 17 15 9 0 4 8 8 5 7 9 14 13 14 17 16 11 12 14 15 16 11 10 11 17 21 30 25 24 29
36 36 36 35 34 33 32 31 29 28 26 24 22 19 17 18 20 13 5 2 6 6 7 8 7 10 13 15 15 19 20 8 9 10 13 16 15 6 11 16 19 34 28 22 27
37 36 36 35 34 33 32 31 30 28 26 24 21 16 17 19 14 6 4 4 6 7 9 9 10 8 15 17 13 13 20 24 6 6 7 10 14 12 5 15 22 33 31 26 26
37 36 36 35 34 34 33 32 30 28 26 23 19 17 19 19 14 5 4 9 5 2 9 14 11 11 12 17 18 23 25 22 9 5 5 9 13 13 15 18 25 31 31 26 25
37 36 36 35 34 33 32 32 30 28 22 18 14 16 19 15 15 11 10 14 12 9 12 11 11 15 15 18 19 16 14 16 11 4 6 8 14 14 9 12 22 29 30 26 26
37 36 35 35 34 33 31 31 27 17 11 11 13 16 18 20 16 14 5 13 9 10 14 9 8 16 16 18 18 15 15 15 13 8 11 8 14 17 7 15 21 19 23 28 24
36 35 34 34 33 31 29 23 13 11 12 13 16 17 17 16 15 12 8 10 12 9 12 13 14 17 16 17 21 17 16 15 14 6 13 11 17 14 3 2 15 21 27 31 30
37 36 35 34 31 28 23 14 17 17 17 18 17 19 21 18 16 14 9 9 11 12 15 15 18 20 19 16 18 17 18 19 19 14 18 3 6 8 2 3 10 20 28 30 30
37 36 36 33 29 24 15 16 18 18 23 23 22 21 23 18 17 15 12 14 14 18 14 16 21 19 18 19 20 21 20 20 20 15 19 22 28 12 7 3 6 14 22 25 27
36 35 34 31 26 16 17 17 23 18 19 20 17 17 16 11 16 15 11 13 15 20 20 20 19 19 20 21 21 21 19 19 19 21 15 12 18 14 13 18 18 5 24 26 26
36 34 32 29 16 19 17 21 23 14 17 17 15 15 14 13 11 10 10 12 15 19 19 22 21 21 22 23 20 26 20 21 21 19 20 15 20 17 8 31 33 31 27 30 22
22 24 25 22 17 17 21 25 20 12 18 12 11 12 13 13 10 13 14 14 14 14 16 21 22 21 23 24 19 22 21 22 22 19 18 19 20 18 6 32 34 34 26 32 39
17 18 22 15 12 13 23 20 11 13 15 12 11 12 11 13 13 11 12 13 13 15 17 20 18 18 21 19 20 22 19 18 18 18 23 18 17 20 14 27 36 36 33 36 40
13 12 15 15 14 18 18 11 11 12 14 14 12 11 12 12 12 12 8 9 15 19 18 17 16 16 17 21 17 17 18 23 24 24 23 18 19 17 24 28 31 34 35 37 41
11 8 17 14 13 17 14 9 9 13 11 13 12 9 11 12 13 12 12 14 15 14 16 19 20 17 20 20 22 21 20 22 28 25 23 21 23 19 20 19 24 30 37 41 39
4 20 17 15 16 16 13 8 11 12 14 14 11 9 12 11 10 11 11 14 16 17 17 18 17 16 13 11 18 22 22 21 21 21 23 22 21 23 28 25 26 25 29 38 23
21 22 18 11 17 16 14 10 11 14 15 14 12 14 13 15 14 14 16 17 17 17 15 16 20 17 18 19 16 15 19 24 23 28 29 25 23 27 27 28 29 28 28 34 34
22 23 11 15 15 14 17 14 13 17 15 15 16 15 15 16 15 16 17 17 18 18 15 16 18 21 17 20 22 19 22 23 23 23 29 28 24 20 23 25 26 27 27 27 23
23 25 17 18 19 18 16 15 16 19 17 16 16 15 17 18 16 17 17 17 19 18 18 19 18 22 21 16 7 10 17 18 26 28 24 25 24 23 23 23 21 22 21 18 14
22 22 24 18 18 18 16 16 17 17 17 16 17 17 16 16 16 13 16 17 17 16 18 20 21 24 21 20 20 20 22 20 18 21 25 27 27 22 21 21 20 18 18 16 14
17 18 23 24 18 18 17 17 16 18 18 16 17 15 14 14 13 13 15 16 17 15 17 18 20 21 25 23 23 26 24 22 21 25 27 25 28 21 22 21 19 18 17 16 15
20 19 17 19 21 20 18 18 17 18 18 17 17 15 13 14 13 16 17 17 19 20 19 17 19 18 17 18 19 24 27 26 25 24 28 28 25 25 24 22 21 19 17 16 17
20 19 18 20 17 22 19 18 18 17 16 16 14 15 13 12 13 16 19 20 21 21 19 18 19 18 19 18 20 17 19 20 23 25 27 26 26 25 20 21 21 21 20 19 18
21 19 19 21 20 20 17 16 17 18 18 16 15 15 15 16 17 18 18 18 19 19 19 19 18 21 23 22 20 23 22 17 18 21 26 29 26 24 23 23 23 23 22 22 21
Wind_Direction
323 322 320 317 313 311 308 304 302 299 294 289 284 278 275 279 281 287 260 277 286 290 107 241 276 270 280 270 279 297 296 315 332 18 30 93 239 232 233 162 199 211 133 120 124
324 319 316 315 313 311 308 305 300 299 296 291 288 284 283 286 286 263 265 279 274 4 98 142 164 186 285 281 291 287 300 321 9 31 93 71 303 298 227 206 236 2 98 118 123
324 320 316 313 310 309 307 304 301 298 297 294 291 287 290 297 289 284 295 271 252 265 284 294 289 268 268 274 284 292 289 346 7 35 77 73 96 14 225 199 215 110 117 126 131
322 319 316 312 309 306 303 302 300 299 296 296 293 295 294 300 282 294 336 322 258 261 276 274 265 260 264 267 273 279 292 346 26 55 67 67 59 42 258 231 211 156 127 126 137
322 317 315 312 309 305 301 299 297 296 296 292 295 300 300 289 275 298 13 5 274 261 260 258 253 261 257 266 274 268 276 3 34 75 49 73 64 359 285 243 217 157 137 128 136
322 318 314 311 309 305 301 297 296 292 293 292 294 301 293 282 293 313 13 350 286 260 258 256 262 265 265 264 277 290 277 248 41 55 359 26 43 70 33 225 163 157 148 141 141
320 316 314 312 308 304 300 297 294 292 290 292 301 294 283 274 304 328 335 306 310 241 257 253 272 270 281 269 285 279 268 275 321 350 340 41 357 83 95 122 153 156 154 144 145
317 313 311 310 308 303 299 296 291 290 296 302 310 298 276 288 298 294 291 282 281 274 270 257 265 271 280 281 281 291 300 285 300 329 307 331 317 92 72 108 136 150 152 148 150
320 315 308 308 306 303 298 293 295 309 327 329 312 297 276 283 281 292 292 276 284 272 265 269 265 271 279 275 274 285 276 283 291 278 296 301 303 272 63 102 131 138 146 154 150
319 312 304 303 304 301 301 303 329 337 322 313 299 289 281 286 289 293 287 281 274 264 264 259 264 266 272 271 259 269 274 279 289 290 294 300 288 282 345 51 126 140 151 158 159
319 315 310 304 299 302 311 321 305 300 299 287 291 287 278 288 290 288 282 280 269 263 253 254 255 255 261 271 272 275 273 274 272 295 290 182 264 275 207 317 132 147 160 163 165
314 314 312 307 299 296 344 313 311 305 284 280 276 276 274 288 284 282 282 266 256 253 255 256 256 262 269 270 272 268 268 268 277 291 295 283 259 273 217 206 151 155 159 165 164
312 311 312 304 295 324 316 318 307 303 289 281 278 279 284 299 285 286 272 270 260 251 252 255 266 262 267 267 265 265 262 265 275 296 306 311 287 270 263 259 263 256 171 175 171
317 311 314 304 332 316 312 308 304 316 287 277 274 282 281 288 293 291 281 278 267 252 254 260 265 261 262 263 266 259 263 267 278 288 283 289 282 279 209 190 205 195 181 184 173
287 289 295 321 332 324 307 292 300 313 271 283 277 290 287 280 280 282 289 278 265 264 261 259 261 260 260 259 266 261 267 270 274 281 286 284 281 284 248 200 204 199 187 193 217
281 274 294 36 55 5 289 289 299 286 268 285 288 279 275 277 275 291 291 284 275 272 270 264 273 271 266 270 266 267 272 276 273 276 270 278 285 280 287 194 211 210 199 204 204
277 254 63 72 55 297 289 304 284 278 288 289 290 280 270 271 270 284 297 302 273 259 264 269 277 277 282 265 272 269 265 262 258 259 263 276 278 288 275 260 240 222 204 201 205
281 123 70 98 101 280 305 326 283 284 293 301 292 296 274 275 277 275 280 279 300 282 270 262 258 280 292 268 262 264 262 258 255 255 259 271 265 272 301 302 284 266 241 234 204
139 64 78 104 102 64 33 329 295 290 293 290 292 293 287 291 283 282 293 286 297 290 270 267 265 289 302 322 272 263 260 271 265 268 264 267 273 275 296 293 296 290 268 221 190
68 64 93 123 100 117 25 354 314 308 298 300 291 293 282 286 280 280 282 296 289 308 290 278 266 284 288 289 307 281 276 259 263 257 258 264 269 275 291 292 295 293 284 253 222
54 49 81 95 119 331 40 53 317 312 317 305 291 289 290 287 291 280 282 292 293 292 312 292 281 276 288 287 281 280 271 269 266 266 258 256 266 291 295 301 304 301 302 281 256
50 28 315 56 22 11 355 360 332 315 321 312 307 301 295 291 289 284 281 286 293 293 287 294 289 276 283 291 312 320 293 283 260 259 264 261 260 294 294 306 320 319 314 310 286
48 43 4 26 12 9 0 353 355 342 327 309 304 300 304 298 287 292 290 301 303 296 293 294 286 276 275 274 287 281 293 291 279 269 262 258 261 294 296 301 323 330 322 321 304
59 55 24 16 22 26 11 351 351 339 342 343 317 315 309 312 309 289 287 298 305 313 315 303 290 280 269 274 280 276 283 288 277 263 262 262 273 285 289 298 310 325 337 323 315
68 73 84 67 37 20 5 341 347 336 339 329 332 331 316 305 301 291 290 286 297 302 305 302 285 288 290 290 290 285 279 277 271 269 261 268 268 279 286 294 301 305 317 333 315
75 83 93 80 86 49 61 62 9 349 339 337 346 340 334 319 315 300 297 293 292 299 301 299 285 289 288 295 297 291 293 282 273 271 268 269 267 290 291 294 298 303 306 307 317
43 57 67 65 71 72 93 105 90 74 22 8 350 337 325 319 316 311 308 306 303 299 299 293 290 285 279 291 291 280 293 290 282 283 271 265 274 288 285 288 293 295 299 302 305